This is the latest recevied weather packets stored in our database for station/object G4ZMG. If no packets are shown the sender has not sent any weather packets the latest 10 day(s).
| Time | Temp. | Humidity | Pressure | Rain* | Wind** | Luminosity | Snow |
|---|---|---|---|---|---|---|---|
| 1777305607 | 17.22° C | 61% | 1022.4 hPa | 0 mm | - | 118 W/m² | - |
| 1777305005 | 17.78° C | 59% | 1022.3 hPa | 0 mm | - | 204 W/m² | - |
| 1777304405 | 17.78° C | 59% | 1022.3 hPa | 0 mm | - | 227 W/m² | - |
| 1777303804 | 18.33° C | 57% | 1022.1 hPa | 0 mm | - | 267 W/m² | - |
| 1777303205 | 18.89° C | 59% | 1022.3 hPa | 0 mm | - | 587 W/m² | - |
| 1777302604 | 18.89° C | 55% | 1022.4 hPa | 0 mm | - | 761 W/m² | - |
| 1777302007 | 17.78° C | 60% | 1022.4 hPa | 0 mm | - | 729 W/m² | - |
| 1777301403 | 17.78° C | 58% | 1022.5 hPa | 0 mm | - | 202 W/m² | - |
| 1777300805 | 19.44° C | 56% | 1022.6 hPa | 0 mm | - | 220 W/m² | - |
| 1777300205 | 19.44° C | 58% | 1022.7 hPa | 0 mm | - | 826 W/m² | - |
| 1777299607 | 17.78° C | 60% | 1022.7 hPa | 0 mm | - | 221 W/m² | - |
| 1777299004 | 17.78° C | 58% | 1022.8 hPa | 0 mm | - | 209 W/m² | - |
| 1777298408 | 17.78° C | 59% | 1022.9 hPa | 0 mm | - | 216 W/m² | - |
| 1777297804 | 19.44° C | 54% | 1022.8 hPa | 0 mm | - | 221 W/m² | - |
| 1777297204 | 18.89° C | 58% | 1023 hPa | 0 mm | - | 838 W/m² | - |
| 1777296604 | 17.78° C | 60% | 1023 hPa | 0 mm | - | 186 W/m² | - |
| 1777296004 | 18.33° C | 57% | 1022.9 hPa | 0 mm | - | 795 W/m² | - |
| 1777295406 | 18.89° C | 56% | 1022.9 hPa | 0 mm | - | 812 W/m² | - |
| 1777294807 | 18.33° C | 57% | 1023 hPa | 0 mm | - | 744 W/m² | - |
| 1777294204 | 18.89° C | 56% | 1023 hPa | 0 mm | - | 759 W/m² | - |
| 1777293604 | 18.33° C | 52% | 1023.2 hPa | 0 mm | - | 773 W/m² | - |
| 1777293003 | 18.33° C | 53% | 1023.5 hPa | 0 mm | - | 773 W/m² | - |
| 1777292404 | 18.33° C | 54% | 1023.6 hPa | 0 mm | - | 814 W/m² | - |
| 1777291804 | 18.89° C | 53% | 1023.5 hPa | 0 mm | - | 886 W/m² | - |
| 1777291206 | 18.33° C | 46% | 1023.7 hPa | 0 mm | - | 902 W/m² | - |
* Rain latest hour (hover to see other rain measurements)
** Current wind speed in m/s (hover to see current wind gust speed)